Location: 22
(39.7117°N, 89.5929°W)
Time: 18:38:32
(UTC-05:00)

Vanguard 3 - Pass Details

Date: 04 February 2023
Orbit: 508 x 3249 km, 33.4° (Epoch: 30 March)

Event Time Altitude Azimuth Distance (km) Brightness Sun altitude
Rises 16:03:19 0° 191° (SSW) 3,376 11.1 12.6°
Reaches altitude 10° 16:06:33 10° 169° (S) 2,801 10.3 12.0°
Maximum altitude 16:10:33 16° 133° (SE) 2,830 9.8 11.4°
Drops below altitude 10° 16:15:48 10° 100° (E) 3,883 10.2 10.5°
Sets 16:21:40 0° 83° (E) 5,517 10.8 9.6°
